{"data":{"norad_id":63912,"intl_designator":"2025-095Y","name":"STARLINK-34031","alt_names":[],"object_type":"PAYLOAD","status":"ACTIVE","operator":null,"country":"US","launch_date":"2025-05-10","launch_site_code":"AFETR","launch_vehicle":null,"mission":null,"orbit_class":"UNKNOWN","rcs_meters":null,"size_class":null,"mass_kg":null,"dimensions":null,"purposes":["comms"],"wikipedia_slug":null,"has_3d_model":false,"image_url":null,"decayed_at":null,"tle_current":{"epoch":"2026-09-20T23:27:55.138464Z","epoch_age_seconds":105855,"freshness":"FRESH","line1":"1 63912U 25095Y   26263.97772151  .00010020  00000+0  37326-3 0  9996","line2":"2 63912  42.9991 153.4085 0000880 260.6136  99.4616 15.27570322 77646","mean_motion":15.27570322,"eccentricity":8.8e-5,"inclination_deg":42.9991,"raan_deg":153.4085,"arg_perigee_deg":260.6136,"mean_anomaly_deg":99.4616,"bstar":0.00037326,"rev_number":7764,"period_min":94.267345945465,"perigee_km":482.47428867964,"apogee_km":483.68186253295,"semimajor_km":6861.2150756063,"source":"CELESTRAK","updated_at":"2026-09-21T09:00:35.147523Z"}}}